Back to catalog

STARLINK-36553

AliveCommunicationsVLEO
NORAD 67506·PAYLOAD·🇺🇸 United States

Launched Jan 18, 2026 from Cape Canaveral Space Force Station

Loading…

Next Passes (next 24 hours)

TLE

FreshSource: CelesTrak SupGP

Epoch: Sep 14, 2026, 22:48 UTC

1 67506C 26012P   26257.95048611 -.00012456  00000+0 -45085-3 0  2572
2 67506  43.0027 325.1926 0001282 261.9242   1.9347 15.27608154    13

Track STARLINK-36553 in real time with AllMySat

Download on the App Store